This is the latest recevied weather packets stored in our database for station/object K42C. If no packets are shown the sender has not sent any weather packets the latest 1 day(s).
| Time | Temp. | Humidity | Pressure | Rain* | Wind** | Luminosity | Snow |
|---|---|---|---|---|---|---|---|
| 1778016218 | 12.78° C | 48% | 970.9 hPa | 0 mm | 0 m/s | - | - |
| 1778015817 | 12.22° C | 48% | 971.1 hPa | 0 mm | 0.45 m/s, 229° | - | - |
| 1778015420 | 12.22° C | 48% | 971 hPa | 0 mm | 2.24 m/s, 194° | - | - |
| 1778015019 | 12.22° C | 48% | 970.9 hPa | 0 mm | 4.47 m/s, 210° | - | - |
| 1778014621 | 12.22° C | 48% | 971 hPa | 0 mm | 2.68 m/s, 218° | - | - |
| 1778014221 | 12.22° C | 48% | 971.1 hPa | 0 mm | 2.68 m/s, 225° | - | - |
| 1778013823 | 12.22° C | 48% | 970.9 hPa | 0 mm | 2.24 m/s, 183° | - | - |
| 1778013422 | 12.22° C | 47% | 971 hPa | 0 mm | 2.68 m/s, 278° | - | - |
| 1778013025 | 12.22° C | 47% | 971 hPa | 0 mm | 2.68 m/s, 284° | - | - |
| 1778012624 | 12.22° C | 48% | 971.1 hPa | 0 mm | 2.68 m/s, 263° | - | - |
| 1778012227 | 12.22° C | 47% | 971.2 hPa | 0 mm | 4.02 m/s, 274° | - | - |
| 1778011826 | 12.22° C | 48% | 971.1 hPa | 0 mm | 3.58 m/s, 267° | - | - |
| 1778011429 | 12.22° C | 47% | 971.1 hPa | 0 mm | 1.79 m/s, 248° | - | - |
| 1778011028 | 12.22° C | 48% | 971.1 hPa | 0 mm | 1.79 m/s, 309° | - | - |
| 1778010630 | 12.22° C | 46% | 971 hPa | 0 mm | 0.89 m/s, 240° | - | - |
| 1778010229 | 12.22° C | 46% | 970.8 hPa | 0 mm | 4.02 m/s, 188° | - | - |
| 1778009832 | 12.78° C | 45% | 970.9 hPa | 0 mm | 3.58 m/s, 207° | - | - |
| 1778009431 | 12.22° C | 45% | 970.9 hPa | 0 mm | 1.34 m/s, 221° | - | - |
| 1778009034 | 12.78° C | 44% | 970.7 hPa | 0 mm | 2.68 m/s, 232° | - | - |
| 1778008633 | 12.78° C | 46% | 970.7 hPa | 0 mm | 0 m/s | - | - |
| 1778008236 | 12.78° C | 44% | 970.6 hPa | 0 mm | 1.34 m/s, 212° | - | - |
| 1778007835 | 12.78° C | 44% | 970.7 hPa | 0 mm | 2.68 m/s, 225° | - | - |
| 1778007437 | 12.78° C | 44% | 970.6 hPa | 0 mm | 0.89 m/s, 217° | - | - |
| 1778007037 | 12.78° C | 45% | 970.4 hPa | 0 mm | 3.13 m/s, 211° | - | - |
| 1778006639 | 12.78° C | 44% | 970.3 hPa | 0 mm | 1.34 m/s, 249° | - | - |
* Rain latest hour (hover to see other rain measurements)
** Current wind speed in m/s (hover to see current wind gust speed)